Regional Weather Roundup
Issued by NWS

Home | Current Version | Previous Version | Graphics & Text | Print | Product List | Glossary On
Versions: 1 2 3 4 5 6 7 8 9 10 11 12 13 14 15 16 17 18 19 20 21 22 23 24 25 26 27 28 29 30 31 32 33 34 35 36 37 38 39 40 41 42 43 44 45 46 47 48 49 50
000
ASUS43 KLSX 220307
RWRMO

WEATHER SUMMARY FOR MISSOURI
NATIONAL WEATHER SERVICE SPRINGFIELD MO
900 PM CST SUN DEC 21 2014

NOTE: "FAIR" INDICATES FEW OR NO CLOUDS BELOW 12,000 FEET WITH NO
       SIGNIFICANT WEATHER AND/OR OBSTRUCTIONS TO VISIBILITY.
       CURRENT SKY AND/OR WEATHER CONDITIONS ARE NOT AVAILABLE FOR
       CHILLICOTHE AND FARMINGTON.

MOZ001>031-035>038-043-044-053-054-220400-
...NORTHERN AND WESTERN MISSOURI...

CITY           SKY/WX    TMP DP  RH WIND       PRES   REMARKS
KANSAS CTY INT CLOUDY    44  40  85 SE14      29.76F
KANSAS C DTWN  CLOUDY    45  39  79 S14G28    29.77F
LEE`S SUMMIT   CLOUDY    43  38  82 S14G24    29.78F
ST JOSEPH      CLOUDY    45  41  86 S15       29.76F
CHILLICOTHE      N/A     43  39  86 SE9       29.83F
KIRKSVILLE     CLOUDY    41  39  93 S13       29.86F

$$
MOZ066>068-077>081-088>096-101>105-220400-
...SOUTHWEST MISSOURI...

CITY           SKY/WX    TMP DP  RH WIND       PRES   REMARKS
SPRINGFIELD    CLOUDY    42  35  76 SE13      29.85F
JOPLIN         CLOUDY    46  37  71 SE15      29.80F

$$
MOZ032>034-039>042-045>050-055>058-069>072-220400-
...CENTRAL MISSOURI...

CITY           SKY/WX    TMP DP  RH WIND       PRES   REMARKS
COLUMBIA       CLOUDY    40  34  79 SE13      29.90F
JEFFERSON CITY CLOUDY    42  34  73 SE7       29.92F
ROLLA          CLOUDY    39  32  76 SE9       29.90F
SEDALIA        CLOUDY    43  36  76 SE15      29.85F
WHITEMAN AFB   CLOUDY    42  37  80 S12G20    29.83F
WARRENSBURG    CLOUDY    41  36  81 SE12      29.82F
OSAGE BEACH    CLOUDY    41  34  75 SE7       29.89F

$$
MOZ051-052-059>065-220400-
...EAST CENTRAL MISSOURI...

CITY           SKY/WX    TMP DP  RH WIND       PRES   REMARKS
ST LOUIS INTL  CLOUDY    44  31  60 SE16      29.98F
SPIRIT OF STL  CLOUDY    43  32  65 SE3       29.96F
ST CHARLES     CLOUDY    40  34  79 E6        29.98F

$$
MOZ072>076-082>087-097>100-106>115-220400-
...SOUTH CENTRAL AND SOUTHEAST MISSOURI...

CITY           SKY/WX    TMP DP  RH WIND       PRES   REMARKS
CAPE GIRARDEAU CLOUDY    39  34  82 CALM      30.01F
FARMINGTON     CLOUDY    39  34  81 E6        29.98F
POPLAR BLUFF   CLOUDY    42  35  76 E6        29.97F
WEST PLAINS    CLOUDY    38  32  79 E6        29.93F

$$



USA.gov is the U.S. government's official web portal to all federal, state and local government web resources and services.